Theta_e
317 314 320 323 317 314 318 322 324 326 330 341 341 344 345 344 348 353 346 347 341 338 343 342 341 341 339 337 334 332 325 320 323 320 318 318 324 328 327 327 325 324 323 322 321 321 320 321 321
315 313 317 323 314 316 317 320 323 324 328 341 345 347 347 346 344 343 349 350 341 334 342 342 341 341 340 339 337 334 329 320 320 318 318 320 325 327 326 324 324 323 322 322 322 322 322 321 321
313 314 321 312 311 315 317 320 322 323 325 343 349 347 346 343 343 341 347 352 343 333 342 341 341 341 341 340 338 336 333 323 318 319 320 320 323 324 324 324 323 323 323 322 322 323 323 323 323
313 320 321 312 314 315 319 321 321 322 325 328 348 352 348 342 342 340 344 352 343 331 340 340 340 341 340 340 339 337 335 329 318 319 321 322 323 324 324 323 323 323 323 323 323 323 323 324 324
320 321 315 312 314 314 317 319 320 321 323 326 350 345 345 349 346 345 351 351 341 331 338 338 339 340 340 340 340 338 337 333 323 318 322 324 325 324 324 323 324 324 324 323 323 324 325 325 326
320 316 312 314 314 317 317 320 321 322 324 325 344 346 346 348 347 347 352 350 338 328 337 337 339 337 337 339 340 340 338 336 329 321 319 324 326 325 323 323 324 324 324 324 324 327 328 328 328
314 312 312 314 316 317 319 322 319 321 322 324 342 347 348 352 349 350 351 349 332 330 337 336 336 336 334 337 339 340 339 337 332 324 320 321 324 324 323 322 322 324 324 325 326 327 329 330 331
316 312 316 315 318 317 319 322 323 324 324 327 345 346 349 351 353 353 352 349 331 333 337 334 334 334 332 334 337 339 339 338 335 328 323 319 322 324 324 323 322 322 324 325 325 326 327 328 328
317 313 313 315 318 317 320 320 324 325 326 326 343 349 347 350 353 354 351 340 334 334 335 334 333 330 330 333 336 338 339 338 337 332 326 323 319 322 324 323 322 322 322 322 323 324 324 325 325
316 312 314 315 316 316 317 318 320 322 322 323 348 347 349 353 353 352 349 341 333 333 335 333 332 330 330 332 335 338 339 339 337 333 328 324 322 319 323 323 322 322 322 322 322 322 322 322 322
317 318 316 317 318 319 318 319 320 321 320 323 338 345 350 354 352 350 350 346 340 331 335 335 331 330 330 331 333 336 339 338 338 334 330 327 323 322 319 322 322 322 322 323 323 323 322 322 321
318 318 319 319 320 319 318 319 319 319 320 321 323 346 348 350 350 349 349 349 348 343 332 333 332 330 330 330 331 334 336 336 335 333 330 326 324 322 321 320 322 322 323 325 325 325 323 332 327
317 319 321 321 320 320 320 319 319 318 319 321 321 343 347 348 348 348 347 349 348 348 346 333 331 330 329 329 329 329 330 331 330 329 327 324 323 322 321 319 320 323 333 338 337 337 338 339 338
316 317 318 320 320 320 318 318 318 319 319 320 321 324 349 347 346 347 349 348 348 347 347 340 329 330 328 327 327 327 328 327 326 324 322 320 321 321 321 322 326 327 335 340 340 340 340 341 341
316 315 316 317 318 317 320 319 318 319 319 320 320 321 337 352 348 346 347 347 347 348 347 347 338 328 328 327 327 327 327 327 327 325 322 320 320 321 321 326 331 334 336 338 338 338 340 341 341
319 318 319 318 318 319 320 321 321 323 321 319 320 321 322 336 346 349 347 347 348 347 348 347 343 336 331 329 331 334 337 331 331 330 330 325 322 321 321 328 333 336 338 339 338 337 337 339 339
317 321 320 320 318 319 318 321 321 322 322 321 321 321 320 322 333 329 342 341 347 347 347 347 346 346 346 340 332 335 342 342 336 341 340 341 339 331 322 327 333 338 338 340 338 337 341 342 342
320 320 319 321 319 319 318 320 320 322 323 320 321 322 319 321 322 325 323 325 346 348 347 347 346 346 345 343 339 339 344 344 339 343 347 346 347 347 346 335 331 336 338 344 345 346 345 346 346
318 319 320 320 319 319 320 320 320 320 320 320 320 321 320 321 321 321 322 322 321 334 345 347 347 344 344 344 343 347 346 345 343 342 348 348 348 349 349 349 349 346 343 344 348 348 348 347 347
316 318 319 318 318 317 317 318 318 318 319 321 321 321 323 322 322 320 320 321 322 328 339 347 348 348 344 344 342 348 346 344 341 344 348 351 349 350 350 350 350 348 347 346 346 347 348 345 346
316 316 316 317 317 316 316 317 317 317 319 321 322 322 323 323 321 321 320 320 321 324 331 341 348 349 348 341 343 349 349 347 346 349 351 349 351 352 351 351 348 348 348 346 346 346 347 346 343
318 316 317 319 318 315 316 318 317 316 317 320 321 321 321 323 324 322 321 320 320 320 323 336 346 349 348 343 343 344 346 350 347 345 351 351 351 351 351 350 350 348 347 347 343 344 346 343 339
321 319 320 321 320 320 320 315 315 316 318 318 318 322 322 321 324 322 321 321 320 320 321 332 348 350 350 348 341 345 349 350 349 343 349 348 350 351 352 351 347 346 345 344 345 345 344 342 341
318 319 320 321 320 322 320 318 319 315 316 318 318 321 322 322 321 322 322 321 322 321 322 327 348 351 351 348 346 343 340 352 343 343 346 350 351 348 348 346 347 348 349 348 346 342 342 340 341
318 320 323 324 324 326 320 320 319 315 315 317 318 319 322 320 320 322 322 322 321 320 324 327 346 352 351 351 352 353 352 353 348 352 353 350 346 346 346 350 351 350 348 347 343 342 341 340 339
316 317 323 324 325 320 319 322 319 318 316 318 319 320 322 324 322 322 322 322 321 321 322 339 344 353 353 352 354 355 351 351 351 347 342 346 344 345 349 346 348 347 345 343 341 340 339 337 336
318 318 318 321 320 322 322 320 318 317 318 317 317 319 321 322 323 323 324 323 321 321 321 331 348 351 354 354 354 355 351 348 344 345 350 350 346 344 343 346 347 344 343 342 340 338 337 336 333
316 318 318 314 321 323 320 320 319 318 320 320 322 321 322 321 320 320 322 322 323 322 321 323 343 342 344 347 350 352 349 348 350 350 347 342 344 344 346 344 343 343 342 340 337 336 333 330 327
318 319 318 316 319 319 318 316 320 318 323 323 322 323 326 328 325 319 320 322 323 322 322 324 343 352 342 344 349 350 351 351 350 345 346 343 346 347 345 343 342 341 336 330 326 324 323 324 324
319 316 319 318 319 320 318 318 321 323 324 324 323 324 330 331 324 323 320 321 321 321 325 331 341 349 343 345 347 346 349 348 346 347 347 346 345 342 342 338 333 327 323 320 319 318 318 318 317
Wind_Speed
6 6 6 5 3 4 5 8 5 7 8 9 3 6 11 18 17 6 10 24 31 35 36 34 31 29 27 24 24 23 22 22 23 23 24 25 25 23 21 20 19 18 18 18 18 17 17 17 17
5 5 5 2 4 0 6 6 7 13 9 5 15 23 9 9 17 8 29 28 34 34 37 35 32 30 28 25 23 23 22 22 23 24 25 25 23 21 20 19 18 17 17 17 17 17 17 17 17
4 4 4 4 4 7 7 5 8 12 17 9 6 5 9 8 22 11 21 31 37 34 36 35 32 31 29 26 24 22 21 21 23 24 24 23 22 19 18 17 17 16 16 16 16 16 16 17 17
3 3 4 4 9 9 16 12 3 15 31 0 14 3 6 25 22 21 27 35 35 35 37 35 33 31 29 27 24 22 21 20 21 23 23 22 20 19 17 16 16 15 15 15 15 15 16 16 16
5 2 2 4 9 9 11 17 13 15 10 13 14 7 7 13 22 25 34 35 32 37 38 36 34 31 29 28 25 23 21 20 20 22 22 21 19 18 17 16 15 15 14 14 15 15 15 15 15
4 1 1 8 8 13 9 20 11 14 20 28 17 15 12 22 27 29 34 32 32 38 39 36 33 31 30 28 26 24 22 20 19 20 21 20 19 18 16 15 15 14 14 14 15 15 15 14 14
5 4 5 5 8 11 14 9 8 11 10 27 20 9 6 24 30 37 35 30 35 38 39 37 34 31 30 29 27 25 23 20 19 19 20 20 18 17 16 15 15 14 13 14 14 14 13 12 11
7 4 4 5 10 11 7 12 18 14 19 29 31 8 10 35 36 35 31 29 37 39 39 38 36 33 32 30 28 27 24 22 19 18 18 19 18 17 16 15 15 14 13 12 12 12 11 10 10
5 3 6 7 6 7 13 5 13 15 23 22 17 15 38 44 40 35 30 34 39 38 39 39 37 34 33 32 30 27 25 23 21 19 19 20 21 19 17 15 14 12 11 10 10 9 9 10 10
7 5 11 7 10 8 13 13 12 14 22 21 10 18 42 46 45 42 39 39 42 41 41 39 38 37 35 34 33 32 30 28 26 23 22 20 20 20 17 14 12 11 11 10 9 8 8 9 9
9 12 10 8 22 26 23 30 17 11 8 12 9 35 43 49 46 42 42 43 42 39 41 40 37 36 36 37 36 35 33 30 27 25 22 20 19 19 19 17 16 13 10 8 7 7 7 8 9
9 13 21 15 22 21 14 23 25 13 20 23 16 33 46 46 47 43 42 42 38 36 36 38 37 35 34 34 35 35 34 31 29 26 23 22 21 20 20 19 16 13 9 7 8 9 7 7 8
11 11 19 26 27 31 31 29 28 26 34 32 20 21 36 44 44 43 40 39 37 33 30 37 36 34 34 33 32 31 31 29 26 24 23 22 21 19 18 18 17 13 10 6 1 1 3 5 5
7 10 20 27 27 27 20 23 16 44 31 29 25 16 38 42 48 45 45 42 40 35 30 31 36 35 32 31 30 29 28 26 25 23 22 22 21 20 19 17 15 15 12 8 6 6 8 9 11
19 12 15 16 6 6 10 12 23 47 22 24 28 16 27 40 45 48 50 45 40 38 37 34 32 35 33 31 28 28 26 25 24 23 22 21 21 21 20 19 15 11 11 11 10 9 10 10 9
6 5 8 2 12 6 9 26 30 20 17 26 31 22 20 23 30 41 41 47 44 42 41 38 34 33 32 32 29 25 22 24 22 22 20 20 20 20 20 19 16 11 13 15 17 15 15 15 16
4 13 13 10 1 6 13 30 30 22 21 25 29 25 23 22 24 24 28 24 35 44 41 39 38 33 28 28 30 27 23 20 23 19 18 18 17 18 21 19 16 14 15 14 16 19 18 19 21
7 11 8 16 4 6 12 27 19 17 20 23 29 32 23 24 26 27 24 22 30 34 39 41 38 32 31 30 30 28 27 23 23 22 18 17 17 15 14 17 19 17 19 18 18 19 21 23 24
13 14 14 11 8 11 19 25 18 13 15 19 25 34 27 26 28 28 21 23 20 31 39 48 45 37 33 37 34 32 34 29 25 24 22 20 18 17 16 15 13 14 20 22 21 20 22 25 27
16 20 23 20 16 15 20 21 13 8 8 23 25 30 37 37 35 34 30 26 22 25 35 47 48 44 44 38 37 35 33 32 26 23 25 22 23 21 17 16 14 13 12 15 21 24 24 24 25
18 18 18 19 17 18 18 20 13 8 8 20 32 35 43 44 37 34 35 31 29 28 34 40 44 45 43 37 43 39 33 30 30 30 28 31 25 23 19 17 16 16 18 19 18 24 27 25 24
16 17 17 14 9 11 5 16 16 6 9 9 16 31 36 47 47 41 37 37 37 37 33 38 46 46 47 44 41 40 35 40 40 37 32 28 25 24 21 18 18 19 19 20 17 24 24 19 22
12 13 5 9 2 2 8 3 5 6 7 9 10 18 34 43 51 51 45 43 38 40 40 39 48 49 48 48 40 37 37 42 46 36 33 31 30 27 23 21 20 22 21 21 21 22 21 18 18
19 13 6 6 1 6 11 5 14 9 8 8 9 20 24 43 44 50 41 37 40 46 41 39 53 53 52 44 44 46 40 38 36 38 36 31 29 21 20 23 24 24 23 20 20 17 15 15 14
8 4 2 4 6 5 9 5 12 8 13 14 18 22 27 32 40 45 39 35 34 43 41 42 49 54 52 48 48 41 35 33 34 31 32 24 22 22 27 28 24 21 19 16 12 10 11 11 11
7 10 5 4 4 5 5 6 11 19 13 15 30 32 29 28 36 46 41 45 42 42 38 47 50 53 53 46 47 42 33 36 34 30 25 22 23 24 25 23 20 16 13 11 9 8 7 9 10
4 5 12 9 9 1 4 6 10 17 14 15 15 24 24 28 29 38 45 47 46 46 42 43 51 53 54 50 46 40 36 36 33 30 25 23 24 20 19 19 16 15 12 10 9 10 11 14 10
6 4 3 2 6 5 5 6 10 7 4 6 5 9 19 21 28 27 38 46 49 49 45 37 54 54 53 49 43 37 34 34 31 27 24 22 20 22 18 17 16 14 12 13 13 11 8 7 6
3 2 4 4 4 4 3 7 1 6 3 7 8 18 27 30 30 36 36 40 52 52 44 40 51 56 50 44 41 37 35 31 28 26 25 22 21 19 19 17 16 14 12 9 7 4 4 7 8
3 3 1 3 5 4 4 9 1 1 2 4 9 20 33 29 31 34 39 41 52 53 46 47 51 50 48 43 38 36 33 31 29 29 25 24 23 22 21 18 15 13 10 8 5 6 9 10 11
Wind_Direction
263 251 255 295 40 63 256 251 244 339 321 235 114 137 141 161 143 225 165 172 175 171 167 166 166 159 154 148 143 140 140 145 146 144 143 143 141 137 137 137 137 136 137 136 135 134 133 132 130
273 248 239 191 107 221 263 214 254 247 273 4 131 120 131 181 194 164 154 176 176 175 170 169 168 163 159 154 149 144 141 143 146 145 144 144 142 140 140 138 138 139 140 140 139 138 137 136 135
276 242 186 152 167 205 242 139 250 290 318 251 105 166 166 187 181 184 176 172 177 175 173 171 170 167 164 160 155 149 144 143 146 145 145 145 144 142 141 140 140 142 145 145 144 145 144 143 144
201 193 232 147 219 245 236 267 330 309 302 259 161 157 217 159 177 181 173 171 175 176 175 174 173 170 168 165 160 155 150 145 146 148 147 148 146 144 142 141 141 144 147 148 150 152 151 149 148
194 213 241 218 238 252 252 252 270 280 280 317 210 164 193 200 185 169 171 169 175 176 175 176 175 173 172 170 167 162 158 151 148 153 153 151 149 147 145 144 145 145 148 151 154 154 154 152 151
194 201 166 226 234 245 255 256 265 264 288 293 213 157 162 189 193 170 170 172 178 177 175 177 176 176 176 176 172 169 166 160 154 156 160 158 153 151 150 149 148 147 151 154 157 159 159 159 161
160 112 228 234 236 257 252 266 223 263 264 288 214 141 180 184 183 166 170 175 176 177 174 177 177 179 179 179 177 175 172 169 162 161 165 166 161 158 158 158 156 156 158 162 165 170 172 175 180
207 123 242 234 241 261 263 269 264 277 282 313 185 155 175 185 172 165 170 174 179 177 178 179 179 180 182 181 181 180 178 176 172 168 169 173 172 172 171 168 167 169 171 173 177 184 194 203 212
196 159 223 219 233 259 286 296 278 304 302 332 239 211 186 173 168 169 168 173 178 181 183 182 181 183 183 182 182 184 183 184 182 180 178 179 183 183 184 181 178 179 179 184 193 200 213 226 236
178 198 217 196 223 266 290 288 334 335 312 314 312 187 164 169 172 177 173 171 180 184 186 187 185 184 184 185 185 185 187 190 190 189 188 186 189 191 191 190 189 191 194 196 206 217 230 245 257
202 231 222 231 235 256 271 278 303 271 290 305 253 157 164 168 178 182 180 177 179 184 186 190 189 188 187 188 188 188 192 193 194 196 195 194 194 196 197 198 199 202 207 215 227 242 255 270 273
255 240 236 256 259 267 268 290 280 275 275 294 317 178 169 168 178 184 185 183 178 183 189 192 193 192 193 194 194 194 194 197 199 200 200 202 201 202 203 205 206 210 218 238 256 262 271 284 265
229 236 251 253 251 251 261 260 269 282 272 281 285 210 181 177 181 190 193 190 182 184 188 197 196 197 199 198 200 201 200 202 204 207 207 209 208 209 208 210 211 210 203 191 186 78 240 277 282
261 240 252 255 256 247 245 264 268 265 257 265 274 251 199 190 185 189 192 193 192 192 192 191 200 202 203 203 205 206 207 208 209 210 212 213 213 209 213 207 204 211 215 217 234 254 273 271 266
254 267 279 252 236 227 260 275 246 256 263 259 265 257 218 201 195 188 193 198 198 200 194 192 194 203 206 206 206 208 210 212 214 214 214 215 216 213 212 214 209 212 225 236 245 255 268 258 269
291 251 255 311 240 237 218 261 254 265 254 238 251 256 253 190 192 199 191 200 200 200 197 189 186 196 202 204 203 201 208 217 220 220 216 213 217 217 216 217 217 221 245 256 256 261 263 268 272
239 255 274 294 212 227 197 254 259 250 254 238 250 247 243 241 209 193 196 198 197 204 203 196 189 192 202 200 205 207 209 215 217 210 210 205 207 213 218 221 223 220 240 245 250 255 263 267 269
233 260 257 257 190 256 261 261 265 257 247 240 240 245 233 219 225 213 201 186 195 199 209 208 198 199 205 202 200 205 210 211 210 213 215 209 208 205 210 223 231 230 232 237 240 251 261 264 266
267 274 272 274 262 228 250 265 263 254 231 241 230 231 230 232 228 221 214 209 203 195 206 206 204 210 206 205 205 202 208 209 208 216 223 220 220 224 224 226 230 241 243 241 248 256 261 266 274
243 254 261 275 267 264 265 268 269 257 237 236 233 231 241 243 241 233 228 233 216 203 202 203 209 219 211 213 214 213 212 213 216 215 227 231 232 230 231 233 234 248 249 251 259 258 262 268 276
242 242 258 255 263 259 271 275 262 246 254 259 241 233 233 240 228 227 224 220 231 220 207 205 213 211 208 215 211 211 218 217 212 211 221 231 233 237 233 244 236 241 255 262 271 270 269 269 275
252 261 272 288 256 249 237 260 257 227 230 235 242 232 228 236 240 230 226 223 228 235 230 212 203 208 216 216 214 219 224 217 218 217 214 223 234 238 244 242 241 257 260 267 275 275 269 267 280
268 286 322 306 305 195 281 249 268 191 244 240 230 240 235 234 232 231 233 234 229 230 227 215 207 211 216 216 218 219 223 225 223 222 219 227 232 238 243 236 237 247 255 260 265 272 280 276 277
252 259 331 280 187 255 250 189 261 238 216 261 264 270 270 230 230 226 227 226 228 228 224 216 209 209 213 210 214 220 221 224 227 227 223 218 220 226 239 246 240 244 256 260 266 261 266 273 275
228 105 284 225 214 220 226 256 252 258 244 221 245 251 249 230 225 221 227 222 220 216 215 213 210 206 206 208 213 216 216 217 215 214 212 209 218 215 226 233 237 246 251 253 253 251 255 267 281
190 169 189 248 183 240 230 204 248 251 262 247 239 249 252 239 229 223 232 222 217 212 215 211 210 205 204 207 212 208 214 216 215 218 216 207 219 222 227 238 237 237 232 231 239 251 249 266 279
180 167 196 209 260 247 235 280 283 263 263 263 255 250 254 241 231 230 234 230 221 220 217 216 209 205 202 204 210 206 207 210 212 212 214 220 218 209 212 217 221 215 217 223 237 236 246 259 258
158 158 171 313 188 208 241 242 241 303 253 299 284 296 270 262 260 243 235 228 223 226 216 217 209 207 205 209 209 207 201 205 210 211 217 204 197 204 199 207 208 210 217 243 250 244 246 262 261
139 207 87 115 165 185 264 254 310 275 15 303 299 304 302 287 269 254 241 235 227 220 212 205 203 202 203 202 200 197 198 195 197 203 199 193 195 198 199 198 199 211 218 204 204 210 244 263 271
93 79 30 178 214 244 170 249 271 7 342 275 305 320 303 266 259 258 243 228 217 209 201 199 196 197 197 194 190 190 189 187 189 186 186 186 185 185 187 191 192 190 187 198 226 247 250 265 277